Phnom Penh, Cambodia

6:29 AM +07 on August 24, 2017 (GMT +0700)
Pochentong International

Weather History for VDPP - October, 2012

Change the Weather History Date:

Monday, October 15, 2012

  Actual Average Record
Temperature  
Mean Temperature 82 °F -  
Max Temperature 87 °F 84 °F 91 °F (2011)
Min Temperature 78 °F 76 °F 75 °F (2000)
Cooling Degree Days 18    
Growing Degree Days 32 (Base 50)    
Moisture  
Dew Point 74 °F    
Average Humidity 75    
Maximum Humidity 89    
Minimum Humidity 62    
Precipitation  
Precipitation 0.00 in - - ()
Sea Level Pressure  
Sea Level Pressure 29.91 in    
Wind  
Wind Speed 4 mph ()    
Max Wind Speed 8 mph    
Max Gust Speed -    
Visibility 5.7 miles    
Events Rain    
Averages and records for this station are not official NWS values.
T = Trace of Precipitation, MM = Missing Value Source: Averaged Metar Reports

Daily Weather History Graph

Daily Weather History Graph

Search for Another Location

Airport or City:

Trip Planner

Search our weather history database for the weather conditions in past years. The results will help you decide how hot, cold, wet, or windy it might be!

Date:

Astronomy

Oct. 15, 2012 Rise Set
Actual Time 5:50 AM +07 5:42 PM +07
Civil Twilight 5:28 AM +07 6:03 PM +07
Nautical Twilight 5:04 AM +07 6:28 PM +07
Astronomical Twilight 4:39 AM +07 6:53 PM +07
Moon 5:19 AM +07 (10/15) 5:28 PM +07 (10/15)
Length of Visible Light 12h 35m
Length of Day
11h 52m
Waning Crescent, 0% of the Moon is Illuminated
Oct 15
Waning Crescent
Oct 15
New
Oct 22
First Quarter
Oct 30
Full
Nov 7
Last Quarter

Hourly Weather History & Observations

Time (+07) Temp. Heat Index Dew Point Humidity Pressure Visibility Wind Dir Wind Speed Gust Speed Precip Events Conditions
6:00 AM 78.8 °F - 75.2 °F 89% 29.89 in 5.6 mi WSW 4.6 mph - N/A Rain Rain
7:00 AM 78.8 °F - 75.2 °F 89% 29.92 in 5.6 mi WSW 4.6 mph - N/A   Scattered Clouds
7:30 AM 78.8 °F - 75.2 °F 89% 29.95 in 5.6 mi WSW 4.6 mph - N/A   Scattered Clouds
8:00 AM 80.6 °F 86.2 °F 75.2 °F 84% 29.95 in 5.6 mi SW 5.8 mph - N/A   Scattered Clouds
8:30 AM 82.4 °F 88.2 °F 73.4 °F 74% 29.95 in 5.6 mi Variable 3.5 mph - N/A   Scattered Clouds
9:00 AM 84.2 °F 92.3 °F 75.2 °F 74% 29.98 in 5.6 mi South 5.8 mph - N/A   Scattered Clouds
9:30 AM 84.2 °F 92.3 °F 75.2 °F 74% 29.98 in 5.6 mi South 3.5 mph - N/A   Scattered Clouds
10:00 AM 84.2 °F 90.9 °F 73.4 °F 70% 29.98 in 5.6 mi SSE 5.8 mph - N/A   Partly Cloudy
10:30 AM 82.4 °F 88.2 °F 73.4 °F 74% 29.98 in 4.3 mi East 5.8 mph - N/A Rain Rain
11:00 AM 78.8 °F - 71.6 °F 78% 29.98 in 2.5 mi ENE 8.1 mph - N/A Rain Rain Showers
11:30 AM 80.6 °F 86.2 °F 75.2 °F 84% 29.95 in 5.0 mi WSW 5.8 mph - N/A Rain Light Rain
12:00 PM 84.2 °F 90.9 °F 73.4 °F 70% 29.95 in 6.2 mi West 5.8 mph - N/A   Scattered Clouds
12:30 PM 82.4 °F 88.2 °F 73.4 °F 74% 29.92 in 6.2 mi Variable 1.2 mph - N/A   Scattered Clouds
1:00 PM 80.6 °F 85.4 °F 73.4 °F 79% 29.92 in 6.2 mi SE 4.6 mph - N/A   Scattered Clouds
1:30 PM 80.6 °F 85.4 °F 73.4 °F 79% 29.89 in 6.2 mi East 2.3 mph - N/A   Scattered Clouds
2:00 PM 82.4 °F 87.2 °F 71.6 °F 70% 29.86 in 6.2 mi Variable 1.2 mph - N/A   Scattered Clouds
2:30 PM 84.2 °F 90.9 °F 73.4 °F 70% 29.86 in 6.2 mi Variable 3.5 mph - N/A   Scattered Clouds
3:00 PM 86.0 °F 93.4 °F 73.4 °F 66% 29.86 in 6.2 mi SE 4.6 mph - N/A   Scattered Clouds
3:30 PM 87.8 °F 95.6 °F 73.4 °F 62% 29.83 in 6.2 mi ESE 4.6 mph - N/A   Scattered Clouds
4:00 PM 87.8 °F 95.6 °F 73.4 °F 62% 29.83 in 6.2 mi ESE 6.9 mph - N/A   Scattered Clouds
4:30 PM 87.8 °F 95.6 °F 73.4 °F 62% 29.83 in 6.2 mi SE 3.5 mph - N/A   Scattered Clouds
5:00 PM 86.0 °F 93.4 °F 73.4 °F 66% 29.83 in 6.2 mi ESE 2.3 mph - N/A   Scattered Clouds
5:30 PM 86.0 °F 93.4 °F 73.4 °F 66% 29.83 in 6.2 mi SSE 3.5 mph - N/A   Scattered Clouds
6:00 PM 84.2 °F 92.3 °F 75.2 °F 74% 29.86 in 6.2 mi ENE 4.6 mph - N/A   Scattered Clouds
6:30 PM 84.2 °F 92.3 °F 75.2 °F 74% 29.86 in 6.2 mi East 3.5 mph - N/A   Scattered Clouds
7:00 PM 84.2 °F 92.3 °F 75.2 °F 74% 29.89 in 5.6 mi East 2.3 mph - N/A   Scattered Clouds
7:30 PM 82.4 °F 89.5 °F 75.2 °F 79% 29.89 in 5.6 mi ENE 2.3 mph - N/A   Scattered Clouds
8:00 PM 82.4 °F 89.5 °F 75.2 °F 79% 29.89 in 5.6 mi East 2.3 mph - N/A   Scattered Clouds
8:30 PM 82.4 °F 89.5 °F 75.2 °F 79% 29.89 in 5.6 mi Calm Calm - N/A   Scattered Clouds
9:00 PM 82.4 °F 89.5 °F 75.2 °F 79% 29.92 in 5.6 mi ESE 3.5 mph - N/A   Scattered Clouds
9:30 PM 82.4 °F 89.5 °F 75.2 °F 79% 29.92 in 5.6 mi East 3.5 mph - N/A   Scattered Clouds
10:00 PM 82.4 °F 89.5 °F 75.2 °F 79% 29.92 in 5.6 mi NE 3.5 mph - N/A   Scattered Clouds
10:30 PM 82.4 °F 89.5 °F 75.2 °F 79% 29.92 in 5.6 mi NE 3.5 mph - N/A   Scattered Clouds
11:00 PM 82.4 °F 89.5 °F 75.2 °F 79% 29.92 in 5.6 mi East 2.3 mph - N/A   Scattered Clouds
11:30 PM 82.4 °F 89.5 °F 75.2 °F 79% 29.92 in 5.6 mi East 4.6 mph - N/A   Scattered Clouds